Regional Weather Roundup
Issued by NWS

Home | Current Version | Previous Version | Graphics & Text | Print | Product List | Glossary On
Versions: 1 2 3 4 5 6 7 8 9 10 11 12 13 14 15 16 17 18 19 20 21 22 23 24 25 26 27 28 29 30 31 32 33 34 35 36 37 38 39 40 41 42 43 44 45 46 47 48 49 50
000
ASUS43 KLOT 211110
RWRIL

ILLINOIS REGIONAL WEATHER ROUNDUP
NATIONAL WEATHER SERVICE CHICAGO/ROMEOVILLE IL
600 AM CDT SUN SEP 21 2014

NOTE: "FAIR" INDICATES FEW OR NO CLOUDS BELOW 12,000 FEET WITH NO
SIGNIFICANT WEATHER AND/OR OBSTRUCTIONS TO VISIBILITY.

* THESE STATIONS ARE NOT UNDER NWS QUALITY CONTROL. THEY ALSO MAY NOT
  REPORT WEATHER SUCH AS PRECIPITATION OR FOG.

ILZ001-002-007-009-015-016-024-211200-
NORTHWEST ILLINOIS

CITY           SKY/WX    TMP DP  RH WIND       PRES   REMARKS
MOLINE         CLEAR     57  52  83 W12       29.90S
STERLING*      CLEAR     54  50  87 W8        29.87S
SAVANNA*       CLEAR     57  52  84 W9        29.86S
$$

ILZ003-004-008-010-011-017-018-211200-
NORTH CENTRAL ILLINOIS

CITY           SKY/WX    TMP DP  RH WIND       PRES   REMARKS
ROCKFORD       CLEAR     55  51  86 W13       29.84S
ROCHELLE*      CLEAR     54  51  91 W12       29.85R
DE KALB*       CLEAR     53  51  92 W10G17    29.83S
PERU*          CLEAR     56  53  87 W9        29.88R
$$

ILZ005-006-012>014-019>023-211200-
NORTHEAST ILLINOIS

CITY           SKY/WX    TMP DP  RH WIND       PRES   REMARKS
CHICAGO-OHARE  CLEAR     58  51  78 W12G23    29.79R
CHICAGO-MIDWAY PTCLDY    60  54  80 W13       29.80R
AURORA         CLEAR     56  51  84 W12       29.83R
LANSING*       CLEAR     58  54  84 W8        29.81R
JOLIET*        CLEAR     56  52  86 W7        29.84S
WAUKEGAN       CLEAR     56  51  84 VRB6G18   29.75R
DUPAGE AIRPORT CLEAR     56  52  86 W13       29.81R
KANKAKEE*      CLEAR     57  55  91 W9        29.85R
WHEELING       CLEAR     59  51  75 W12G23    29.79R
MORRIS*        CLEAR     56  55  98 W8        29.84S
ROMEOVILLE*    CLEAR     56  53  89 W10G17    29.82S
NORTHERLY ISL    N/A     60  51  72 W7          N/A
$$

LMZ740>746-211200-
SOUTHERN LAKE MICHIGAN

STATION/POSITION SKY/WX   TEMP    WIND        PRES    VSBY  WAVE
                          AIR SEA DIR/SP/G                  HT/PER
                          (F)     (DEG/KT/KT) (MB)    (MI)  (FT/S)
SOUTHERN BUOY              60 63  270/ 25/ 29 1005.8R         5/ 5
WAUKEGAN HARBOR            59     270/ 12/ 18   N/A
HARRISON CRIB              61     280/ 19/ 24   N/A
BURNHAM HARBOR             60     290/  6/ 13   N/A
CALUMET HARBOR             60     260/  4/ 10 1007.8R
MICHIGAN CITY              63     260/ 27/ 33   N/A
MICHIGAN CITY 6N           63 65  300/ 19/ 27   N/A           6/ 5
ST. JOSEPH                 63 65  290/ 25/ 33   N/A           6/ 5
$$

ILZ025>027-034>036-040-047-049-050-058-095>099-211200-
WEST-CENTRAL ILLINOIS

CITY           SKY/WX    TMP DP  RH WIND       PRES   REMARKS
QUINCY         CLEAR     56  52  86 W6        29.99R
GALESBURG*     CLEAR     54  52  93 W7        29.93S
MACOMB*        CLEAR     54  52  94 W8        29.97S
JACKSONVILLE*  CLEAR     59  56  88 W6        29.98R
PITTSFIELD*    CLEAR     60  53  77 W3        30.00S
$$

ILZ028>032-037-038-041>044-048-051>054-059>061-211200-
CENTRAL ILLINOIS

CITY           SKY/WX    TMP DP  RH WIND       PRES   REMARKS
PONTIAC        CLEAR     57  55  94 W6        29.88R
DECATUR        CLEAR     61  55  81 NW10      29.94R
PEORIA         CLEAR     58  51  78 W6        29.93R
LACON*         CLEAR     56  50  80 W6        29.90R
LINCOLN*       CLEAR     59  54  83 CALM      29.92R
SPRINGFIELD    CLEAR     59  54  83 W6        29.96R
TAYLORVILLE    CLEAR     61  54  77 NW10G16   29.95R
$$

ILZ033-039-045-046-055>057-062-063-211200-
EAST-CENTRAL ILLINOIS

CITY           SKY/WX    TMP DP  RH WIND       PRES   REMARKS
CHAMPAIGN      CLEAR     60  56  86 NW10      29.91R
DANVILLE*      RAIN      60  56  87 NW13      29.85R
RANTOUL*       CLEAR     60  55  83 NW8       29.91R
MATTOON        PTCLDY    64  59  83 NW18      29.90R
PARIS*         PTCLDY    66  65  94 NW12G18   29.88R
$$

ILZ079-100>102-211200-
SOUTHWEST ILLINOIS

CITY           SKY/WX    TMP DP  RH WIND       PRES   REMARKS
ALTON          CLEAR     65  59  80 NW10G17   29.97R
BELLEVILLE     MOCLDY    72  68  88 W10       29.93R
CAHOKIA*       MOCLDY    72  67  84 NW14      29.95R
SPARTA*        PTCLDY    71  69  94 W7        29.94R
$$

ILZ064>066-069>071-074>076-080>082-084>086-088>090-092>094-211200-
SOUTH-CENTRAL ILLINOIS

CITY           SKY/WX    TMP DP  RH WIND       PRES   REMARKS
CARBONDALE     CLOUDY    71  68  90 W5        29.92R
CAIRO*         PTCLDY    71  66  85 SW5       29.93S
EFFINGHAM*     MOCLDY    69  65  86 NW14      29.90R
MARION         CLOUDY    73  70  88 W3        29.93S
MT. VERNON     PTCLDY    72  66  83 W5        29.93R
CENTRALIA*     MOCLDY    70  67  88 W8        29.92R
SALEM*         MOCLDY    70  69  95 W6        29.92R FOG
METROPOLIS*    PTCLDY    72  67  86 SW8       29.91S
$$

ILZ067-068-072-073-078-083-087-091-211200-
SOUTHEAST ILLINOIS

CITY           SKY/WX    TMP DP  RH WIND       PRES   REMARKS
LAWRENCEVILLE  CLOUDY    69  67  93 SW7       29.89R
FLORA*         PTCLDY    70  67  90 W9        29.90R
FAIRFIELD*     PTCLDY   N/A N/A N/A CALM      29.91R
HARRISBURG*    RAIN      71  70  97 W8        29.93S
ROBINSON*      CLEAR     71  70  95 W10       29.88R
CARMI*         MOCLDY    70  69  97 CALM      29.91R
$$

ABBREVIATIONS USED IN REMARKS
   TC - TEMPERATURE IN CELSIUS
  WCI - WIND CHILL INDEX
   HX - HEAT INDEX
  VSB - VISIBILITY
$$



USA.gov is the U.S. government's official web portal to all federal, state and local government web resources and services.